Weather History for Grosse Ile, MI

Change the Weather History Date:

Wednesday, May 22, 2013

  Actual Average (KDTW) Record (KDTW)
Temperature  
Mean Temperature 73 °F 62 °F  
Max Temperature 82 °F 72 °F 90 °F (1994)
Min Temperature 64 °F 51 °F 32 °F (1883)
Degree Days  
Heating Degree Days 0 5  
Month to date heating degree days 171  
Since 1 July heating degree days 6065  
Cooling Degree Days 8 2  
Month to date cooling degree days 20  
Year to date cooling degree days 26  
Growing Degree Days 23 (Base 50)    
Moisture  
Dew Point 62 °F    
Average Humidity 74    
Maximum Humidity 88    
Minimum Humidity 39    
Precipitation  
Precipitation 0.00 in 0.12 in 1.14 in (1949)
Month to date precipitation 2.34  
Year to date precipitation 11.50  
Snow  
Snow 0.00 in 0.00 in 2.70 in (1883)
Month to date snowfall 0.0  
Since 1 July snowfall 42.5  
Snow Depth -    
Sea Level Pressure  
Sea Level Pressure 29.71 in    
Wind  
Wind Speed 7 mph (SSW)    
Max Wind Speed 20 mph    
Max Gust Speed 30 mph    
Visibility 10 miles    
Events Rain    
T = Trace of Precipitation, MM = Missing Value Source: NWS Daily Summary

Daily Weather History Graph

Daily Weather History Graph

Search for Another Location

Airport:

Trip Planner

Search our weather history database for the weather conditions in past years. The results will help you decide how hot, cold, wet, or windy it might be!

Date:

Astronomy

May. 22, 2013 Rise Set
Actual Time 6:05 AM EDT 8:53 PM EDT
Civil Twilight 5:32 AM EDT 9:26 PM EDT
Nautical Twilight 4:51 AM EDT 10:08 PM EDT
Astronomical Twilight 4:03 AM EDT 10:56 PM EDT
Moon 6:12 PM EDT (5/22) 4:11 AM EDT (5/22)
Length of Visible Light 15h 53m
Length of Day
14h 48m
Waxing Gibbous, 91% of the Moon is Illuminated
May 22
Waxing Gibbous
May 25
Full
May 31
Last Quarter
Jun 8
New
Jun 16
First Quarter

Hourly Weather History & Observations

Time (EDT) Temp. Heat Index Dew Point Humidity Pressure Visibility Wind Dir Wind Speed Gust Speed Precip Events Conditions
12:14 AM 71.6 °F - 62.6 °F 73% 29.76 in 10.0 mi Calm Calm - N/A   Mostly Cloudy
12:33 AM 69.8 °F - 64.4 °F 83% 29.76 in 10.0 mi Calm Calm - N/A   Mostly Cloudy
12:54 AM 69.8 °F - 64.4 °F 83% 29.75 in 10.0 mi Calm Calm - N/A   Scattered Clouds
1:14 AM 69.8 °F - 62.6 °F 78% 29.75 in 10.0 mi South 3.5 mph - N/A   Mostly Cloudy
1:34 AM 71.6 °F - 62.6 °F 73% 29.75 in 10.0 mi SSW 4.6 mph - N/A   Scattered Clouds
1:54 AM 73.4 °F - 60.8 °F 65% 29.74 in 10.0 mi SW 3.5 mph - N/A   Scattered Clouds
2:14 AM 73.4 °F - 60.8 °F 65% 29.74 in 10.0 mi SSW 4.6 mph - N/A   Clear
2:34 AM 71.6 °F - 60.8 °F 69% 29.74 in 10.0 mi SSW 5.8 mph - N/A   Clear
2:54 AM 71.6 °F - 60.8 °F 69% 29.74 in 10.0 mi SSW 4.6 mph - N/A   Clear
3:14 AM 69.8 °F - 62.6 °F 78% 29.73 in 10.0 mi Calm Calm - N/A   Clear
3:34 AM 69.8 °F - 60.8 °F 73% 29.74 in 10.0 mi SSW 4.6 mph - N/A   Clear
3:54 AM 71.6 °F - 60.8 °F 69% 29.74 in 10.0 mi SSW 5.8 mph - N/A   Clear
4:14 AM 71.6 °F - 60.8 °F 69% 29.73 in 10.0 mi SSW 5.8 mph - N/A   Clear
4:34 AM 69.8 °F - 60.8 °F 73% 29.73 in 10.0 mi SSW 5.8 mph - N/A   Clear
4:54 AM 69.8 °F - 60.8 °F 73% 29.74 in 10.0 mi SSW 6.9 mph - N/A   Clear
5:14 AM 69.8 °F - 60.8 °F 73% 29.74 in 10.0 mi SSW 6.9 mph - N/A   Clear
5:34 AM 68.0 °F - 62.6 °F 83% 29.74 in 10.0 mi South 8.1 mph - N/A   Scattered Clouds
5:54 AM 69.8 °F - 62.6 °F 78% 29.74 in 10.0 mi South 6.9 mph - N/A   Mostly Cloudy
6:14 AM 68.0 °F - 62.6 °F 83% 29.74 in 10.0 mi South 6.9 mph - N/A   Mostly Cloudy
6:34 AM 69.8 °F - 62.6 °F 78% 29.74 in 10.0 mi SSW 9.2 mph - N/A   Mostly Cloudy
6:54 AM 68.0 °F - 62.6 °F 83% 29.74 in 10.0 mi South 9.2 mph - N/A   Overcast
7:14 AM 66.2 °F - 62.6 °F 88% 29.75 in 10.0 mi South 6.9 mph - N/A Rain Rain
7:34 AM 66.2 °F - 62.6 °F 88% 29.76 in 10.0 mi South 9.2 mph - N/A   Light Drizzle
7:54 AM 66.2 °F - 62.6 °F 88% 29.76 in 10.0 mi South 12.7 mph - N/A Rain Rain
8:14 AM 66.2 °F - 62.6 °F 88% 29.75 in 10.0 mi South 9.2 mph - N/A   Mostly Cloudy
8:34 AM 66.2 °F - 62.6 °F 88% 29.75 in 10.0 mi South 10.4 mph - N/A   Overcast
8:54 AM 66.2 °F - 62.6 °F 88% 29.76 in 10.0 mi South 11.5 mph - N/A   Overcast
9:14 AM 69.8 °F - 62.6 °F 78% 29.75 in 10.0 mi South 13.8 mph 19.6 mph N/A   Overcast
9:34 AM 69.8 °F - 64.4 °F 83% 29.75 in 10.0 mi South 11.5 mph - N/A   Mostly Cloudy
9:53 AM 69.8 °F - 64.4 °F 83% 29.74 in 10.0 mi South 10.4 mph - N/A   Scattered Clouds
10:14 AM 69.8 °F - 64.4 °F 83% 29.74 in 10.0 mi South 12.7 mph - N/A   Clear
10:34 AM 69.8 °F - 64.4 °F 83% 29.73 in 10.0 mi South 10.4 mph - N/A   Scattered Clouds
10:54 AM 71.6 °F - 64.4 °F 78% 29.74 in 10.0 mi South 12.7 mph - N/A   Scattered Clouds
11:14 AM 71.6 °F - 64.4 °F 78% 29.73 in 10.0 mi South 11.5 mph - N/A   Clear
11:34 AM 71.6 °F - 66.2 °F 83% 29.72 in 10.0 mi South 12.7 mph - N/A   Scattered Clouds
11:54 AM 71.6 °F - 64.4 °F 78% 29.72 in 10.0 mi South 15.0 mph - N/A   Scattered Clouds
12:14 PM 71.6 °F - 64.4 °F 78% 29.72 in 10.0 mi South 10.4 mph - N/A   Scattered Clouds
12:34 PM 71.6 °F - 64.4 °F 78% 29.71 in 10.0 mi South 9.2 mph - N/A   Mostly Cloudy
12:54 PM 71.6 °F - 64.4 °F 78% 29.71 in 10.0 mi SSE 9.2 mph - N/A   Mostly Cloudy
1:14 PM 71.6 °F - 64.4 °F 78% 29.70 in 10.0 mi South 10.4 mph - N/A   Mostly Cloudy
1:34 PM 73.4 °F - 62.6 °F 69% 29.70 in 10.0 mi SSW 12.7 mph 20.7 mph N/A   Mostly Cloudy
1:54 PM 73.4 °F - 64.4 °F 73% 29.69 in 10.0 mi South 17.3 mph - N/A   Mostly Cloudy
2:14 PM 77.0 °F - 64.4 °F 65% 29.70 in 10.0 mi SSW 13.8 mph 20.7 mph N/A   Scattered Clouds
2:34 PM 77.0 °F - 62.6 °F 61% 29.69 in 10.0 mi SW 16.1 mph 23.0 mph N/A   Mostly Cloudy
2:54 PM 75.2 °F - 62.6 °F 65% 29.69 in 10.0 mi SSW 15.0 mph 21.9 mph N/A   Mostly Cloudy
3:14 PM 77.0 °F - 62.6 °F 61% 29.68 in 10.0 mi SSW 12.7 mph 21.9 mph N/A   Mostly Cloudy
3:34 PM 78.8 °F - 62.6 °F 57% 29.67 in 10.0 mi SSW 17.3 mph 25.3 mph N/A   Mostly Cloudy
3:54 PM 78.8 °F - 62.6 °F 57% 29.66 in 10.0 mi SSW 11.5 mph - N/A   Mostly Cloudy
4:14 PM 82.4 °F 82.0 °F 57.2 °F 42% 29.65 in 10.0 mi SSW 13.8 mph 28.8 mph N/A   Scattered Clouds
4:34 PM 82.4 °F 82.0 °F 57.2 °F 42% 29.64 in 10.0 mi SW 18.4 mph 24.2 mph N/A   Scattered Clouds
4:54 PM 82.4 °F 81.7 °F 55.4 °F 39% 29.64 in 10.0 mi SSW 19.6 mph 26.5 mph N/A   Scattered Clouds
5:14 PM 80.6 °F 80.5 °F 55.4 °F 42% 29.64 in 10.0 mi SW 18.4 mph 29.9 mph N/A   Scattered Clouds
5:34 PM 77.0 °F - 60.8 °F 57% 29.65 in 10.0 mi SSW 19.6 mph 29.9 mph N/A   Mostly Cloudy
5:54 PM 71.6 °F - 62.6 °F 73% 29.68 in 10.0 mi SW 13.8 mph 23.0 mph N/A Rain Rain
6:14 PM 69.8 °F - 62.6 °F 78% 29.68 in 10.0 mi WSW 11.5 mph 21.9 mph N/A   Overcast
6:34 PM 69.8 °F - 62.6 °F 78% 29.67 in 10.0 mi WSW 9.2 mph 16.1 mph N/A   Mostly Cloudy
6:53 PM 71.6 °F - 62.6 °F 73% 29.67 in 10.0 mi SW 6.9 mph - N/A   Scattered Clouds
7:14 PM 73.4 °F - 62.6 °F 69% 29.67 in 10.0 mi SW 8.1 mph - N/A   Clear
7:34 PM 73.4 °F - 62.6 °F 69% 29.67 in 10.0 mi SW 10.4 mph - N/A   Clear
7:54 PM 73.4 °F - 62.6 °F 69% 29.67 in 10.0 mi SW 9.2 mph - N/A   Clear
8:14 PM 71.6 °F - 62.6 °F 73% 29.67 in 10.0 mi SSW 6.9 mph - N/A   Clear
8:34 PM 71.6 °F - 62.6 °F 73% 29.68 in 10.0 mi SW 4.6 mph - N/A   Clear
8:54 PM 71.6 °F - 62.6 °F 73% 29.69 in 10.0 mi WSW 6.9 mph - N/A   Scattered Clouds
9:14 PM 69.8 °F - 57.2 °F 64% 29.69 in 10.0 mi West 13.8 mph 19.6 mph N/A   Mostly Cloudy
9:34 PM 66.2 °F - 57.2 °F 73% 29.69 in 10.0 mi WSW 9.2 mph - N/A Rain Light Rain
9:54 PM 66.2 °F - 59.0 °F 78% 29.69 in 10.0 mi WSW 4.6 mph - N/A   Mostly Cloudy
10:14 PM 64.4 °F - 59.0 °F 83% 29.71 in 10.0 mi WSW 5.8 mph - N/A   Overcast
10:34 PM 64.4 °F - 59.0 °F 83% 29.71 in 10.0 mi WSW 6.9 mph - N/A   Overcast
10:54 PM 64.4 °F - 59.0 °F 83% 29.70 in 10.0 mi WSW 6.9 mph - N/A   Light Drizzle
11:14 PM 66.2 °F - 60.8 °F 83% 29.70 in 10.0 mi SW 5.8 mph - N/A   Overcast
11:34 PM 64.4 °F - 60.8 °F 88% 29.70 in 10.0 mi WSW 6.9 mph - N/A   Mostly Cloudy
11:54 PM 64.4 °F - 60.8 °F 88% 29.70 in 10.0 mi WSW 9.2 mph - N/A   Overcast